Погода Верховье Лотты

Погода Верховье Лотты : погода сейчас, прогноз погоды и архив. Всё, что Вы хотите узнать о погоде Верховье Лотты!

Поиск расширенной информации на нашем сайте:

Другие новости

Новости СМИ2

Главная страница сайта

Новости сайта

03.07.2017

Напоминаем, что на нашем специализированном сайте Метеоцентр.Азия вы можете получить высокодетализированные автоматические прогнозы погоды по пунктам России, СНГ и мира в авиационном формате (включающие направление и скорость ветра, видимость, явления погоды, количество и форму облачности, нижнюю и верхнюю границу облачности).


Погода Верховье Лотты - сегодня

Время (UTC), дата Ветер
(°,м/с) 
Видим.   Явления Облачность Т
(°С)
Тd
(°С)
f(%) Тe
(°С)
Pmin
(гПа)
dP
(гПа)
Po
(мм)
O2
(г/м3)
Тmin Tmax R s Состояние
почвы
15 10.12.17 130 (ЮВ) 1-3  н/о    н/о 
-1.1 -3.6 83 -1  1004.5  0.5  743  301           
18 10.12.17 120 (ЮВ) 1-3  20000 м    10/0 
[]
-1.1 -3.1 86 -1  1004  -0.5  742  301    -0.6       
21 10.12.17 090 (В) 2-4  н/о    н/о 
-1.2 -2.4 92 -2  1002.5  -1.5  741  300           
00 11.12.17 080 (В) 2-4  н/о    н/о 
-2 -2.6 96 -3  999.7  -2.8  739  300           
03 11.12.17 120 (ЮВ) 2-4  н/о    н/о 
-1.8 -2.5 95 -3  998.6  -1.1  738  300  -2         
06 11.12.17 тихо ()   20000 м  {ливн. осадки}  9/0 
[]
-2.1 -3.1 93 -2  999.2  0.6  739  300  -2.4       
09 11.12.17 220 (ЮЗ) 1-3  н/о    н/о 
-1.5 -2.6 92 -1  1001.1  1.9  740  300           
12 11.12.17 230 (ЮЗ) 1-1  н/о    н/о 
-1.8 -3 91 -1  1002.5  1.4  741  301           
15 11.12.17 210 (ЮЗ) 1-3  н/о    н/о 
-2.2 -3.7 89 -2  1003.9  1.3  742  302           
18 11.12.17 200 (Ю) 1-2  20000 м    10/0 
[]
-2.8 -4.1 91 -2  1005.3  1.4  743  303    -1.3       
21 11.12.17 210 (ЮЗ) 1-4  н/о    н/о 
-5.8 -6.6 94 -5  1006.2  0.7  744  307           
00 12.12.17 210 (ЮЗ) 1-3  н/о    н/о 
-3.4 -5.1 88 -3  1006.4  0.3  744  304           
03 12.12.17 070 (В) 1-1  н/о    н/о 
-7.5 -8.6 92 -7  1006.3  -0.3  744  309  -8.3         
06 12.12.17 тихо ()   20000 м    9/0 
[]
-9.1 -10.3 91 -9  1005.9  -0.5  743  311  -9.7         
09 12.12.17 тихо ()   н/о    н/о 
-10.5 -11.8 90 -11  1004.6  -1.4  742  312           
12 12.12.17 тихо ()   н/о    н/о 
-12.2 -13.7 89 -12  1002.9  -1.8  741  314           
15 12.12.17 тихо ()   н/о    н/о 
-9.7 -10.9 91 -10  1001.1  -1.6  740  310           
18 12.12.17 050 (СВ) 1-2  н/о    н/о 
-8.5 -9.7 91 -8  998.5  -2.4  738  308    -8.5       
21 12.12.17 060 (СВ) 1-3  н/о    н/о 
-7.1 -8.1 93 -7  993.9  -4.4  734  305           
00 13.12.17 070 (В) 2-4  н/о    н/о 
-4.9 -5.8 93 -6  987.9  -5.8  730  300           
03 13.12.17 080 (В) 3-7  н/о    н/о 
-2.9 -3.7 94 -5  981.6  -6  726  296  -9.6         
06 13.12.17 070 (В) 1-3  н/о    н/о 
-2.8 -3.5 95 -2  977.5  -4  723  294  -8.5         
09 13.12.17 050 (СВ) 1-2  н/о    н/о 
-3.1 -3.8 95 -3  975  -2.5  721  294           
12 13.12.17 тихо ()   н/о    н/о 
-3.6 -4.2 96 -4  973.2  -1.8  719  294           
15 13.12.17 240 (ЮЗ) 1-2  н/о    н/о 
-4.7 -5.4 95 -4  973  -0.2  719  295           
Время (UTC), дата Ветер
(°,м/с) 
Видим.   Явления Облачность Т
(°С)
Тd
(°С)
f(%) Тe
(°С)
Pmin
(гПа)
dP
(гПа)
Po
(мм)
O2
(г/м3)
Тmin Tmax R s Состояние
почвы

Для получения пояснительной информации подведите курсор к названию столбца.

ПОГОДА Верховье Лотты - архив

Всё, что Вы хотите узнать о погоде Верховье Лотты - удобно и подробно!

Выберите нужную дату (начиная с 1 января 2015* года) и нажмите кнопку "Найти".
Будут отображены архивные сводки погоды по пункту Верховье Лотты, начиная с указанной даты.


Отображать данные в формате CSV (для использования в таблицах Excel)


Внимание! Наш архив погоды предназначен исключительно для личного некоммерческого использования в познавательных целях. Если Вам необходимы официальные справки о состоянии погоды (для производственных, юридических, коммерческих и т.п. целей), обращайтесь в органы Росгидромета.

*Примечание: данная дата относится к архиву по метеостанциям СССР (Россия, СНГ, Балтия).
Архив по метеостанциям Зарубежной Европы и Азии (кроме Китая) хранится 10 дней, по другим регионам земного шара (Китай, Африка, Америка, Австралия, Океания) - 1 день.

Верховье Лотты - район местоположения метеостанции


Название, широта, долгота, высота метеостанции:
Верховье Лотты 68.4°ш. 28.7°д. 120 м над ур. моря [Российская Федерация]

Дополнительная информация

В oтличие oт бoльшинства пoгoдных сайтoв мы публикуем пoдрoбную метеoинфoрмацию в детальнoм прoфессиoнальнoм фoрмате.

Характеристики температуры и влажнoсти вoздуха измеряются на высoте 2 м в тени вдали oт зданий и деревьев.
Скoрoсть ветра измеряется на высoте 10 м (на урoвне рoста челoвека скoрoсть ветра ниже в 1.5-2 раза). Если метеoстанция нахoдится в гoрoде или в лесу, тo скoрoсть ветра занижена на 2-4 м/с пo сравнению с oткрытым местoм. Скoрoсть ветра над акватoриями крупных рек и oзёр, а также на вершинах хoлмoв на 2-5 м/с выше, чем в oбычных услoвиях.
Атмoсфернoе давление в разных тoчках местнoсти мoжет значительнo oтличаться oт давления на метеoстанции, в зависимoсти oт услoвий рельефа (при пoдъёме на 10 м давление пoнижается примернo на 1 мм рт.ст.).